Project,Study,Ord_Occ,Event_Num,Cast_ID,Date_Time_UTC,Date_Time_PST,Lat_Dec,Lon_Dec,Sta_ID,Line,Sta,Depth,Pressure,PrQ,Temp1,Temp1Q,Temp2,Temp2Q,TempAve,Salt1,Salt1Q,Salt1_Corr,Salt2,Salt2Q,Salt2_Corr,SaltAve_Corr,Ox1,Ox1Q,Ox1_CruiseCorr,Ox1_StaCorr,Ox2,Ox2Q,Ox2_CruiseCorr,Ox2_StaCorr,OxAve_StaCorr,Ox1uM,Ox1uM_CruiseCorr,Ox1uM_StaCorr,Ox2uM,Ox2uM_CruiseCorr,Ox2uM_StaCorr,OxAveuM_StaCorr,FluorV,FluorQ,EstChl_CruiseCorr,EstChl_StaCorr,ISUSV,ISUSQ,EstNO3_CruiseCorr,EstNO3_StaCorr,SigThetaTS1,SigThetaTS1Q,SigThetaTS2,SigThetaTS2Q,BAT,XMiss,TransQ,pH,pHQ,SPAR,SPARQ,PAR,PARQ,PoT1,PoT2,DynHt,SVA,OxSat1,OxSat2,BTL_Depth,BTL_Temp,SaltB,OxB,OxBuM,Chl-a,Phaeo,NO3,NO2,NH4,PO4,SIL
CalCOFI,2007SR,008,9,2007_008d,14-Jul-2020 14:32:31,14-Jul-2020 06:32:31,32.34633,-118.55822,093.3 045.0,093.3,045.0,2.000,2.014,,20.6902,,20.6900,,20.6901,33.6808,,33.6810,33.6806,,33.6822,33.6816,5.3471,,5.5695,5.6107,3.7057,,4.9054,4.4588,5.0348,233.301,243.0548,203.7775,161.686,405.0761,155.4057,179.5916,0.0763,,0.4724,1.2305,-99.0,,-99.0,,23.5733,,23.5732,,0.7919,82.0398,,8.247,,1.1991E+02,,3.7592E+00,,20.6899,20.6896,-0.0009,,103.826,71.955,1,20.510,33.6677,5.653,246.64,0.812,0.160,0.0,0.00,0.05,0.07,0.60
CalCOFI,2007SR,008,9,2007_008d,14-Jul-2020 14:32:49,14-Jul-2020 06:32:49,32.34634,-118.55822,093.3 045.0,093.3,045.0,3.000,3.021,,20.6900,,20.6897,,20.6899,33.6806,,33.6808,33.6803,,33.6819,33.6814,5.3567,,5.5795,5.6208,3.7090,,4.9133,4.4669,5.0439,233.722,243.4943,204.1217,161.830,406.1058,155.6699,179.8958,0.0775,,0.4865,1.2545,-99.0,,-99.0,,23.5733,,23.5731,,0.8035,81.8024,,8.247,,1.1999E+02,,2.8148E+00,,20.6894,20.6892,0.0075,,104.013,72.018,,,,,,,,,,,,
CalCOFI,2007SR,008,9,2007_008d,14-Jul-2020 14:32:55,14-Jul-2020 06:32:55,32.34633,-118.55822,093.3 045.0,093.3,045.0,4.000,4.028,,20.6895,,20.6891,,20.6893,33.6807,,33.6809,33.6806,,33.6822,33.6816,5.3573,,5.5801,5.6214,3.7103,,4.9164,4.4701,5.0458,233.748,243.5214,204.1429,161.884,406.1694,155.7690,179.9560,0.0768,,0.4783,1.2405,-99.0,,-99.0,,23.5735,,23.5735,,0.7982,81.9111,,8.247,,1.1997E+02,,2.4291E+00,,20.6887,20.6884,0.0132,,104.023,72.042,,,,,,,,,,,,
CalCOFI,2007SR,008,9,2007_008d,14-Jul-2020 14:32:59,14-Jul-2020 06:32:59,32.34632,-118.55822,093.3 045.0,093.3,045.0,5.000,5.035,,20.6879,,20.6875,,20.6877,33.6807,,33.6809,33.6806,,33.6822,33.6816,5.3605,,5.5835,5.6247,3.7110,,4.9181,4.4718,5.0483,233.884,243.6634,204.2541,161.915,406.5021,155.8258,180.0400,0.0760,,0.4689,1.2245,-99.0,,-99.0,,23.5740,,23.5740,,0.7959,81.9567,,8.247,,1.1946E+02,,2.1061E+00,,20.6869,20.6865,0.0178,,104.081,72.053,,,,,,,,,,,,
CalCOFI,2007SR,008,9,2007_008d,14-Jul-2020 14:33:01,14-Jul-2020 06:33:01,32.34632,-118.55822,093.3 045.0,093.3,045.0,6.000,6.042,,20.6853,,20.6856,,20.6855,33.6809,,33.6811,33.6806,,33.6822,33.6817,5.3589,,5.5818,5.6231,3.7116,,4.9195,4.4733,5.0482,233.816,243.5924,204.1985,161.941,406.3357,155.8736,180.0361,0.0784,,0.4971,1.2724,-99.0,,-99.0,,23.5749,,23.5746,,0.7927,82.0234,,8.247,,1.1997E+02,,1.6969E+00,,20.6841,20.6844,0.0221,,104.046,72.062,,,,,,,,,,,,
CalCOFI,2007SR,008,9,2007_008d,14-Jul-2020 14:33:02,14-Jul-2020 06:33:02,32.34633,-118.55822,093.3 045.0,093.3,045.0,7.000,7.049,,20.6859,,20.6855,,20.6857,33.6809,,33.6811,33.6807,,33.6823,33.6817,5.3583,,5.5812,5.6224,3.7120,,4.9205,4.4743,5.0484,233.792,243.5674,204.1789,161.961,406.2770,155.9102,180.0446,0.0791,,0.5053,1.2863,-99.0,,-99.0,,23.5748,,23.5747,,0.7987,81.9007,,8.247,,1.1997E+02,,1.4907E+00,,20.6845,20.6842,0.0265,,104.036,72.071,,,,,,,,,,,,
CalCOFI,2007SR,008,9,2007_008d,14-Jul-2020 14:33:05,14-Jul-2020 06:33:05,32.34632,-118.55822,093.3 045.0,093.3,045.0,8.000,8.057,,20.6858,,20.6848,,20.6853,33.6806,,33.6808,33.6804,,33.6820,33.6814,5.3679,,5.5912,5.6325,3.7125,,4.9217,4.4755,5.0540,234.211,244.0048,204.5214,161.984,407.3019,155.9524,180.2369,0.0765,,0.4747,1.2345,0.0004,,0.0000,,23.5747,,23.5747,,0.7939,81.9981,,8.247,,1.1997E+02,,1.4062E+00,,20.6842,20.6833,0.0308,,104.222,72.080,,,,,,,,,,,,
CalCOFI,2007SR,008,9,2007_008d,14-Jul-2020 14:33:08,14-Jul-2020 06:33:08,32.34632,-118.55822,093.3 045.0,093.3,045.0,9.000,9.064,,20.6790,,20.6797,,20.6794,33.6804,,33.6806,33.6799,,33.6815,33.6811,5.3697,,5.5931,5.6344,3.7152,,4.9281,4.4822,5.0583,234.288,244.0851,204.5844,162.100,407.4902,156.1653,180.3749,0.0777,,0.4889,1.2585,0.0095,,0.0000,,23.5763,,23.5757,,0.7927,82.0227,,8.247,,1.1997E+02,,1.2741E+00,,20.6773,20.6780,0.0352,,104.244,72.125,,,,,,,,,,,,
CalCOFI,2007SR,008,9,2007_008d,14-Jul-2020 14:33:09,14-Jul-2020 06:33:09,32.34632,-118.55822,093.3 045.0,093.3,045.0,10.000,10.071,,20.6777,,20.6781,,20.6779,33.6802,,33.6804,33.6800,,33.6816,33.6810,5.3750,,5.5986,5.6399,3.7130,,4.9228,4.4767,5.0583,234.519,244.3263,204.7732,162.005,408.0552,155.9910,180.3821,0.0776,,0.4877,1.2565,0.0277,,0.0000,,23.5765,,23.5763,,0.7923,82.0314,,8.247,,1.1997E+02,,1.1116E+00,,20.6758,20.6762,0.0395,,104.344,72.081,10,20.500,33.6523,5.632,245.72,0.916,0.245,0.0,0.030,0.09,0.07,0.51
CalCOFI,2007SR,008,9,2007_008d,14-Jul-2020 14:33:11,14-Jul-2020 06:33:11,32.34633,-118.55822,093.3 045.0,093.3,045.0,11.000,11.078,,20.6625,,20.6657,,20.6641,33.6795,,33.6797,33.6794,,33.6810,33.6804,5.3760,,5.5997,5.6409,3.7153,,4.9283,4.4824,5.0617,234.563,244.3722,204.8092,162.102,408.1628,156.1690,180.4891,0.0788,,0.5018,1.2804,0.0511,,0.0000,,23.5802,,23.5793,,0.8300,81.2707,,8.247,,1.1997E+02,,9.9551E-01,,20.6604,20.6636,0.0438,,104.335,72.108,11,20.447,33.6683,,246.81,0.924,0.244,,,,,
CalCOFI,2007SR,008,9,2007_008d,14-Jul-2020 14:33:13,14-Jul-2020 06:33:13,32.34632,-118.55822,093.3 045.0,093.3,045.0,12.000,12.085,,20.6617,,20.6617,,20.6617,33.6799,,33.6801,33.6789,,33.6805,33.6803,5.3938,,5.6183,5.6595,3.7188,,4.9367,4.4910,5.0753,235.336,245.1792,205.4411,162.258,410.0534,156.4552,180.9482,0.0830,,0.5512,1.3632,0.0962,,0.0000,,23.5808,,23.5799,,0.7956,81.9644,,8.247,,1.1997E+02,,9.3007E-01,,20.6594,20.6595,0.0482,,104.677,72.172,,,,,,,,,,,,
CalCOFI,2007SR,008,9,2007_008d,14-Jul-2020 14:33:16,14-Jul-2020 06:33:16,32.34632,-118.55822,093.3 045.0,093.3,045.0,13.000,13.092,,20.6165,,20.6208,,20.6187,33.6763,,33.6765,33.6760,,33.6776,33.6771,5.4480,,5.6749,5.7161,3.7271,,4.9565,4.5114,5.1138,237.702,247.6490,207.3753,162.617,415.8403,157.1139,182.2446,0.0884,,0.6148,1.4677,0.1383,,0.0000,,23.5901,,23.5887,,0.8032,81.8071,,8.247,,1.1997E+02,,8.6135E-01,,20.6141,20.6184,0.0525,,105.642,72.277,,,,,,,,,,,,
CalCOFI,2007SR,008,9,2007_008d,14-Jul-2020 14:33:17,14-Jul-2020 06:33:17,32.34632,-118.55822,093.3 045.0,093.3,045.0,14.000,14.099,,20.4156,,20.4532,,20.4344,33.6751,,33.6753,33.6689,,33.6705,33.6729,5.4613,,5.6888,5.7300,3.7491,,5.0090,4.5655,5.1478,238.269,248.2409,207.8388,163.571,417.2272,158.8644,183.3516,0.1217,,1.0071,2.0647,0.1556,,0.0000,,23.6426,,23.6280,,0.8147,81.5734,,8.251,,1.1997E+02,,7.8084E-01,,20.4130,20.4505,0.0568,,105.511,72.479,,,,,,,,,,,,
CalCOFI,2007SR,008,9,2007_008d,14-Jul-2020 14:33:19,14-Jul-2020 06:33:19,32.34632,-118.55822,093.3 045.0,093.3,045.0,15.000,15.106,,20.1200,,20.1619,,20.1410,33.6739,,33.6741,33.6587,,33.6603,33.6672,5.6086,,5.8427,5.8839,3.7826,,5.0890,4.6479,5.2659,244.676,254.9292,213.0764,165.023,432.8978,161.5286,187.3025,0.1509,,1.3516,2.5208,0.1650,,0.0000,,23.7197,,23.6970,,0.8441,80.9751,,8.255,,1.1997E+02,,7.3071E-01,,20.1172,20.1592,0.0610,,107.769,72.734,,,,,,,,,,,,
CalCOFI,2007SR,008,9,2007_008d,14-Jul-2020 14:33:21,14-Jul-2020 06:33:21,32.34632,-118.55822,093.3 045.0,093.3,045.0,16.000,16.113,,19.3348,,19.3472,,19.3410,33.6631,,33.6633,33.6691,,33.6707,33.6670,5.7003,,5.9385,5.9797,3.8403,,5.2267,4.7898,5.3848,248.630,259.0568,216.3088,167.502,442.5687,166.0773,191.1931,0.2356,,2.3540,3.4875,0.1604,,0.0000,,23.9151,,23.9165,,0.8949,79.9548,,8.262,,1.2025E+02,,6.7383E-01,,19.3319,19.3443,0.0651,,107.952,72.746,,,,,,,,,,,,
CalCOFI,2007SR,008,9,2007_008d,14-Jul-2020 14:33:23,14-Jul-2020 06:33:23,32.34632,-118.55822,093.3 045.0,093.3,045.0,17.000,17.121,,19.1779,,19.1753,,19.1766,33.6691,,33.6693,33.6715,,33.6731,33.6712,5.5884,,5.8216,5.8628,3.8638,,5.2828,4.8476,5.3552,243.737,253.9490,212.3088,168.519,430.6011,167.9433,190.1261,0.2055,,1.9973,3.2046,0.1425,,0.0000,,23.9598,,23.9623,,0.9420,79.0175,,8.262,,1.1998E+02,,6.4083E-01,,19.1748,19.1722,0.0691,,105.525,72.959,,,,,,,,,,,,
CalCOFI,2007SR,008,9,2007_008d,14-Jul-2020 14:33:26,14-Jul-2020 06:33:26,32.34632,-118.55822,093.3 045.0,093.3,045.0,18.000,18.128,,18.9970,,19.1579,,19.0775,33.6644,,33.6646,33.6496,,33.6512,33.6579,5.6019,,5.8357,5.8769,3.9220,,5.4218,4.9907,5.4338,244.315,254.5523,212.7813,171.059,432.0148,172.6039,192.6926,0.2387,,2.3908,3.5128,0.1004,,0.0000,,24.0020,,23.9498,,0.9610,78.6425,,8.261,,1.1997E+02,,6.0307E-01,,18.9938,19.1547,0.0731,,105.417,74.023,,,,,,,,,,,,
CalCOFI,2007SR,008,9,2007_008d,14-Jul-2020 14:33:28,14-Jul-2020 06:33:28,32.34632,-118.55822,093.3 045.0,093.3,045.0,19.000,19.135,,17.2468,,17.4387,,17.3428,33.6036,,33.6038,33.6017,,33.6033,33.6036,5.8666,,6.1123,6.1534,4.0522,,5.7326,5.3109,5.7322,255.763,266.5029,222.1399,176.669,460.0150,182.8976,202.5188,0.2489,,2.5118,3.5912,0.0600,,0.0000,,24.3840,,24.3370,,0.9887,78.1009,,8.265,,1.1997E+02,,5.5290E-01,,17.2437,17.4355,0.0769,,106.761,74.013,,,,,,,,,,,,
CalCOFI,2007SR,008,9,2007_008d,14-Jul-2020 14:33:29,14-Jul-2020 06:33:29,32.34632,-118.55822,093.3 045.0,093.3,045.0,20.000,20.142,,16.7962,,16.8483,,16.8223,33.6427,,33.6429,33.6409,,33.6425,33.6427,5.8862,,6.1328,6.1739,4.1036,,5.8553,5.4373,5.8056,256.586,267.3620,222.8127,178.881,462.0279,186.9563,204.8845,0.2694,,2.7552,3.7254,0.0338,,0.0000,,24.5213,,24.5077,,0.9672,78.5223,,8.262,,1.2124E+02,,5.1517E-01,,16.7929,16.8451,0.0803,,106.225,74.128,20,16.905,33.6521,6.169,268.92,3.259,0.503,0.0,0.044,0.20,0.16,0.82
CalCOFI,2007SR,008,9,2007_008d,14-Jul-2020 14:33:31,14-Jul-2020 06:33:31,32.34632,-118.55822,093.3 045.0,093.3,045.0,21.000,21.149,,16.7522,,16.7773,,16.7648,33.6428,,33.6430,33.6444,,33.6460,33.6445,5.8637,,6.1093,6.1504,4.1201,,5.8947,5.4779,5.8142,255.603,266.3359,222.0091,179.600,459.6236,188.2756,205.1424,0.2723,,2.7897,3.7418,0.0151,,0.0000,,24.5317,,24.5270,,0.9549,78.7627,,8.257,,1.2090E+02,,5.0093E-01,,16.7488,16.7739,0.0838,,105.729,74.327,21,16.840,,, ,,,0.0,0.033,0.30,0.19,0.77
CalCOFI,2007SR,008,9,2007_008d,14-Jul-2020 14:33:33,14-Jul-2020 06:33:33,32.34632,-118.55822,093.3 045.0,093.3,045.0,22.000,22.156,,16.5988,,16.5724,,16.5856,33.6666,,33.6668,33.6431,,33.6447,33.6558,5.6006,,5.8344,5.8756,4.1710,,6.0162,5.6031,5.7394,244.122,254.3509,212.6235,181.808,431.5428,192.3270,202.4753,0.2841,,2.9300,3.8025,0.0022,,0.0000,,24.5855,,24.5736,,0.9551,78.7591,,8.243,,1.1953E+02,,4.8050E-01,,16.5952,16.5689,0.0872,,100.699,74.944,,,,,,,,,,,,
CalCOFI,2007SR,008,9,2007_008d,14-Jul-2020 14:33:36,14-Jul-2020 06:33:36,32.34632,-118.55822,093.3 045.0,093.3,045.0,23.000,23.163,,15.2709,,15.5193,,15.3951,33.6016,,33.6018,33.5833,,33.5849,33.5934,5.6583,,5.8947,5.9358,4.2758,,6.2664,5.8608,5.8983,246.576,256.9126,214.6296,186.343,437.5449,200.6481,207.6389,0.3604,,3.8389,3.9464,-99.0,,-99.0,,24.8354,,24.7660,,0.9473,78.9135,,8.231,,1.2013E+02,,3.9369E-01,,15.2674,15.5158,0.0904,,99.080,75.230,,,,,,,,,,,,
CalCOFI,2007SR,008,9,2007_008d,14-Jul-2020 14:33:37,14-Jul-2020 06:33:37,32.34632,-118.55822,093.3 045.0,093.3,045.0,24.000,24.170,,14.9926,,15.0115,,15.0021,33.6234,,33.6236,33.6228,,33.6244,33.6240,5.6761,,5.9133,5.9544,4.3130,,6.3552,5.9523,5.9534,247.334,257.7039,215.2493,187.939,439.3989,203.5766,209.4130,0.4457,,4.8593,3.5983,-99.0,,-99.0,,24.9131,,24.9086,,0.9512,78.8369,,8.223,,1.2190E+02,,3.2391E-01,,14.9890,15.0079,0.0935,,98.857,75.145,,,,,,,,,,,,
CalCOFI,2007SR,008,9,2007_008d,14-Jul-2020 14:33:39,14-Jul-2020 06:33:39,32.34632,-118.55822,093.3 045.0,093.3,045.0,25.000,25.178,,14.8473,,14.8650,,14.8562,33.6167,,33.6169,33.6188,,33.6204,33.6187,5.6897,,5.9275,5.9686,4.3201,,6.3722,5.9698,5.9692,247.921,258.3166,215.7292,188.240,440.8346,204.1289,209.9291,0.5199,,5.7505,2.8584,-99.0,,-99.0,,24.9395,,24.9372,,0.9678,78.5101,,8.216,,1.2064E+02,,2.8820E-01,,14.8436,14.8613,0.0966,,98.803,75.046,,,,,,,,,,,,
CalCOFI,2007SR,008,9,2007_008d,14-Jul-2020 14:33:41,14-Jul-2020 06:33:41,32.34632,-118.55823,093.3 045.0,093.3,045.0,26.000,26.185,,14.7864,,14.8842,,14.8353,33.6311,,33.6313,33.6365,,33.6381,33.6347,5.4177,,5.6433,5.6845,4.3313,,6.3989,5.9973,5.8409,236.063,245.9381,206.0354,188.729,411.8316,205.0261,205.5308,0.6554,,7.3865,0.4581,-99.0,,-99.0,,24.9637,,24.9467,,0.9802,78.2665,,8.202,,1.1933E+02,,2.1067E-01,,14.7825,14.8803,0.0996,,93.972,75.279,,,,,,,,,,,,
CalCOFI,2007SR,008,9,2007_008d,14-Jul-2020 14:33:44,14-Jul-2020 06:33:44,32.34632,-118.55824,093.3 045.0,093.3,045.0,27.000,27.192,,14.5018,,14.5199,,14.5109,33.6183,,33.6185,33.6128,,33.6144,33.6165,5.0597,,5.2692,5.3105,4.3654,,6.4803,6.0812,5.6959,220.454,229.6438,193.2753,190.202,373.6542,207.7289,200.5021,0.6666,,7.5223,0.1990,-99.0,,-99.0,,25.0148,,25.0067,,1.0224,77.4457,,8.191,,1.1999E+02,,8.2974E-02,,14.4978,14.5159,0.1026,,87.257,75.308,,,,,,,,,,,,
CalCOFI,2007SR,008,9,2007_008d,14-Jul-2020 14:33:45,14-Jul-2020 06:33:45,32.34632,-118.55822,093.3 045.0,093.3,045.0,28.000,28.199,,14.1508,,14.1638,,14.1573,33.6109,,33.6111,33.6144,,33.6160,33.6136,5.0423,,5.2510,5.2923,4.3862,,6.5300,6.1323,5.7123,219.681,228.8369,192.6434,191.094,371.7635,209.3656,201.0045,0.5370,,5.9563,2.6302,-99.0,,-99.0,,25.0830,,25.0830,,1.0140,77.6090,,8.177,,1.1997E+02,,1.8859E-02,,14.1468,14.1598,0.1055,,86.341,75.126,,,,,,,,,,,,
CalCOFI,2007SR,008,9,2007_008d,14-Jul-2020 14:33:47,14-Jul-2020 06:33:47,32.34632,-118.55823,093.3 045.0,093.3,045.0,29.000,29.206,,13.9901,,14.0164,,14.0033,33.6260,,33.6262,33.6152,,33.6168,33.6215,4.8289,,5.0280,5.0694,4.3903,,6.5398,6.1424,5.6059,210.370,219.1171,185.0318,191.268,348.9902,209.6849,197.3584,0.4293,,4.6628,3.7069,-99.0,,-99.0,,25.1283,,25.1145,,0.9621,78.6221,,8.153,,1.1997E+02,,4.2689E-04,,13.9860,14.0122,0.1084,,82.424,74.973,,,,,,,,,,,,
CalCOFI,2007SR,008,9,2007_008d,14-Jul-2020 14:33:50,14-Jul-2020 06:33:50,32.34632,-118.55824,093.3 045.0,093.3,045.0,30.000,30.214,,13.7484,,13.8325,,13.7905,33.6181,,33.6183,33.6042,,33.6058,33.6121,4.4669,,4.6498,4.6912,4.3937,,6.5479,6.1508,5.4210,194.594,202.6486,172.1351,191.409,310.4043,209.9436,191.0394,0.3224,,3.3858,3.9285,-99.0,,-99.0,,25.1721,,25.1441,,0.9157,79.5383,,8.127,,1.1976E+02,,1.0000E-12,,13.7442,13.8283,0.1112,,75.871,74.746,30,14.343,33.6243,,242.24,4.249,0.724,0.71,0.141,0.33,0.42,3.44
CalCOFI,2007SR,008,9,2007_008d,14-Jul-2020 14:33:52,14-Jul-2020 06:33:52,32.34632,-118.55824,093.3 045.0,093.3,045.0,31.000,31.221,,13.4555,,13.5017,,13.4786,33.5985,,33.5987,33.6009,,33.6025,33.6006,4.2027,,4.3737,4.4152,4.3970,,6.5558,6.1589,5.2871,183.076,190.6249,162.7193,191.542,282.2329,210.1876,186.4535,0.2449,,2.4643,3.5613,-99.0,,-99.0,,25.2167,,25.2092,,0.8958,79.9359,,8.105,,1.1997E+02,,1.0000E-12,,13.4512,13.4974,0.1140,,70.948,74.298,,,,,,,,,,,,
CalCOFI,2007SR,008,9,2007_008d,14-Jul-2020 14:33:53,14-Jul-2020 06:33:53,32.34632,-118.55824,093.3 045.0,093.3,045.0,32.000,32.228,,13.2169,,13.2605,,13.2387,33.6061,,33.6063,33.6085,,33.6101,33.6082,4.0478,,4.2118,4.2534,4.3881,,6.5345,6.1370,5.1952,176.319,183.5713,157.1956,191.142,265.7063,209.4537,183.3247,0.2435,,2.4477,3.5506,-99.0,,-99.0,,25.2708,,25.2638,,0.8593,80.6695,,8.082,,1.1997E+02,,1.0000E-12,,13.2125,13.2561,0.1167,,68.003,73.785,,,,,,,,,,,,
CalCOFI,2007SR,008,9,2007_008d,14-Jul-2020 14:33:55,14-Jul-2020 06:33:55,32.34632,-118.55824,093.3 045.0,093.3,045.0,33.000,33.235,,13.1106,,13.1364,,13.1235,33.6142,,33.6144,33.6159,,33.6175,33.6160,3.8073,,3.9605,4.0022,4.3670,,6.4841,6.0851,5.0437,165.837,172.6291,148.6267,190.217,240.0688,207.7564,178.1916,0.2134,,2.0909,3.2853,-99.0,,-99.0,,25.2983,,25.2945,,0.8337,81.1857,,8.058,,1.1997E+02,,1.0000E-12,,13.1061,13.1319,0.1194,,63.825,73.246,,,,,,,,,,,,
CalCOFI,2007SR,008,9,2007_008d,14-Jul-2020 14:33:57,14-Jul-2020 06:33:57,32.34632,-118.55824,093.3 045.0,093.3,045.0,34.000,34.242,,13.0519,,13.0822,,13.0671,33.6271,,33.6273,33.6236,,33.6252,33.6263,3.4514,,3.5887,3.6304,4.3357,,6.4094,6.0081,4.8193,150.335,156.4466,135.9540,188.852,202.1531,205.2518,170.6029,0.1539,,1.3871,2.5641,-99.0,,-99.0,,25.3200,,25.3113,,0.8173,81.5205,,8.028,,1.1997E+02,,1.0000E-12,,13.0473,13.0775,0.1221,,57.795,72.644,,,,,,,,,,,,
CalCOFI,2007SR,008,9,2007_008d,14-Jul-2020 14:34:00,14-Jul-2020 06:34:00,32.34632,-118.55824,093.3 045.0,093.3,045.0,35.000,35.250,,12.8451,,12.8966,,12.8709,33.6370,,33.6372,33.6351,,33.6367,33.6370,3.2157,,3.3424,3.3842,4.3082,,6.3438,5.9405,4.6624,140.061,145.7216,127.5552,187.644,177.0244,203.0353,165.2953,0.1110,,0.8809,1.8818,-99.0,,-99.0,,25.3685,,25.3569,,0.7919,82.0396,,7.994,,1.1854E+02,,1.0000E-12,,12.8404,12.8919,0.1248,,53.622,71.912,,,,,,,,,,,,
CalCOFI,2007SR,008,9,2007_008d,14-Jul-2020 14:34:02,14-Jul-2020 06:34:02,32.34632,-118.55824,093.3 045.0,093.3,045.0,36.000,36.257,,12.5854,,12.6234,,12.6044,33.6488,,33.6490,33.6505,,33.6521,33.6506,3.0754,,3.1958,3.2376,4.2908,,6.3022,5.8977,4.5677,133.940,139.3319,122.5514,186.875,162.0533,201.6243,162.0879,0.1046,,0.8055,1.7684,-99.0,,-99.0,,25.4285,,25.4225,,0.7721,82.4467,,7.968,,1.1998E+02,,1.0000E-12,,12.5807,12.6186,0.1274,,51.009,71.225,,,,,,,,,,,,
CalCOFI,2007SR,008,9,2007_008d,14-Jul-2020 14:34:03,14-Jul-2020 06:34:03,32.34632,-118.55824,093.3 045.0,093.3,045.0,37.000,37.264,,12.3711,,12.4044,,12.3878,33.6473,,33.6475,33.6506,,33.6522,33.6499,3.0004,,3.1174,3.1593,4.2584,,6.2249,5.8180,4.4887,130.671,135.9194,119.8790,185.457,154.0578,199.0224,159.4507,0.0911,,0.6465,1.5192,-99.0,,-99.0,,25.4688,,25.4649,,0.7595,82.7069,,7.948,,1.1997E+02,,1.0000E-12,,12.3662,12.3995,0.1299,,49.544,70.366,,,,,,,,,,,,
CalCOFI,2007SR,008,9,2007_008d,14-Jul-2020 14:34:05,14-Jul-2020 06:34:05,32.34632,-118.55824,093.3 045.0,093.3,045.0,38.000,38.271,,11.9324,,12.0060,,11.9692,33.6629,,33.6631,33.6610,,33.6626,33.6629,2.9914,,3.1080,3.1499,4.2458,,6.1948,5.7870,4.4685,130.266,135.4966,119.5479,184.893,153.0672,197.9876,158.7678,0.0676,,0.3701,1.0533,-99.0,,-99.0,,25.5643,,25.5489,,0.7329,83.2590,,7.932,,1.1997E+02,,1.0000E-12,,11.9275,12.0011,0.1324,,48.948,69.580,,,,,,,,,,,,
CalCOFI,2007SR,008,9,2007_008d,14-Jul-2020 14:34:08,14-Jul-2020 06:34:08,32.34632,-118.55824,093.3 045.0,093.3,045.0,39.000,39.279,,11.8218,,11.8738,,11.8478,33.6868,,33.6870,33.6749,,33.6765,33.6818,2.9304,,3.0443,3.0861,4.1863,,6.0528,5.6407,4.3634,127.604,132.7177,117.3718,182.295,146.5563,193.2206,155.2962,0.0575,,0.2513,0.8405,-99.0,,-99.0,,25.6036,,25.5846,,0.7019,83.9049,,7.912,,1.1841E+02,,1.0000E-12,,11.8168,11.8688,0.1348,,47.846,68.421,,,,,,,,,,,,
CalCOFI,2007SR,008,9,2007_008d,14-Jul-2020 14:34:10,14-Jul-2020 06:34:10,32.34632,-118.55824,093.3 045.0,093.3,045.0,40.000,40.286,,11.6734,,11.6860,,11.6797,33.6840,,33.6842,33.6848,,33.6864,33.6853,2.9177,,3.0310,3.0729,4.1443,,5.9525,5.5374,4.3052,127.048,132.1373,116.9172,180.461,145.1964,189.8554,153.3863,0.0543,,0.2137,0.7715,-99.0,,-99.0,,25.6291,,25.6274,,0.6904,84.1464,,7.901,,1.2001E+02,,1.0000E-12,,11.6683,11.6809,0.1372,,47.488,67.471,40,11.718,33.6805,,133.94,3.933,0.758,7.36,0.038,0.07,1.11,12.81
CalCOFI,2007SR,008,9,2007_008d,14-Jul-2020 14:34:11,14-Jul-2020 06:34:11,32.34632,-118.55824,093.3 045.0,093.3,045.0,41.000,41.293,,11.5406,,11.5462,,11.5434,33.6928,,33.6930,33.6936,,33.6952,33.6941,2.9276,,3.0413,3.0832,4.1132,,5.8782,5.4609,4.2721,127.475,132.5831,117.2663,179.099,146.2408,187.3563,152.3113,0.0499,,0.1620,0.6754,-99.0,,-99.0,,25.6604,,25.6601,,0.6827,84.3085,,7.893,,1.1997E+02,,1.0000E-12,,11.5355,11.5411,0.1396,,47.519,66.771,,,,,,,,,,,,
CalCOFI,2007SR,008,9,2007_008d,14-Jul-2020 14:34:14,14-Jul-2020 06:34:14,32.34632,-118.55824,093.3 045.0,093.3,045.0,42.000,42.300,,11.4515,,11.4861,,11.4688,33.7060,,33.7062,33.7074,,33.7090,33.7076,2.9445,,3.0590,3.1009,4.0678,,5.7699,5.3493,4.2251,128.207,133.3472,117.8647,177.118,148.0312,183.7214,150.7931,0.0462,,0.1186,0.5935,0.0059,,0.0000,,25.6871,,25.6818,,0.6730,84.5134,,7.886,,1.1963E+02,,1.0000E-12,,11.4462,11.4809,0.1419,,47.707,65.955,,,,,,,,,,,,
CalCOFI,2007SR,008,9,2007_008d,14-Jul-2020 14:34:16,14-Jul-2020 06:34:16,32.34632,-118.55824,093.3 045.0,093.3,045.0,43.000,43.307,,11.3859,,11.4059,,11.3959,33.7047,,33.7049,33.7052,,33.7068,33.7059,2.9068,,3.0196,3.0615,4.0093,,5.6302,5.2054,4.1335,126.567,131.6352,116.5240,174.572,144.0200,179.0498,147.7869,0.0513,,0.1785,0.7061,0.0308,,0.0000,,25.6981,,25.6948,,0.6688,84.6022,,7.881,,1.1796E+02,,1.0000E-12,,11.3806,11.4005,0.1442,,47.031,64.897,,,,,,,,,,,,
CalCOFI,2007SR,008,9,2007_008d,14-Jul-2020 14:34:18,14-Jul-2020 06:34:18,32.34632,-118.55824,093.3 045.0,093.3,045.0,44.000,44.315,,11.3291,,11.3269,,11.3280,33.7102,,33.7104,33.7121,,33.7137,33.7121,2.8799,,2.9915,3.0334,3.9802,,5.5607,5.1339,4.0837,125.391,130.4076,115.5627,173.299,141.1436,176.7140,146.1384,0.0444,,0.0974,0.5533,0.0554,,0.0000,,25.7128,,25.7146,,0.6682,84.6164,,7.877,,1.1998E+02,,1.0000E-12,,11.3237,11.3215,0.1465,,46.540,64.320,,,,,,,,,,,,
CalCOFI,2007SR,008,9,2007_008d,14-Jul-2020 14:34:19,14-Jul-2020 06:34:19,32.34632,-118.55824,093.3 045.0,093.3,045.0,45.000,45.322,,11.2661,,11.2706,,11.2684,33.7184,,33.7186,33.7211,,33.7227,33.7207,2.8797,,2.9913,3.0332,3.9508,,5.4905,5.0616,4.0474,125.382,130.3982,115.5553,172.018,141.1216,174.3636,144.9595,0.0421,,0.0704,0.5016,0.0845,,0.0000,,25.7306,,25.7319,,0.6651,84.6806,,7.871,,1.1997E+02,,1.0000E-12,,11.2606,11.2651,0.1488,,46.478,63.773,,,,,,,,,,,,
CalCOFI,2007SR,008,9,2007_008d,14-Jul-2020 14:34:21,14-Jul-2020 06:34:21,32.34632,-118.55824,093.3 045.0,093.3,045.0,46.000,46.329,,11.2235,,11.2351,,11.2293,33.7238,,33.7240,33.7250,,33.7266,33.7253,2.8774,,2.9889,3.0308,3.9151,,5.4053,4.9738,4.0023,125.278,130.2896,115.4703,170.460,140.8672,171.5048,143.4876,0.0407,,0.0540,0.4699,0.1212,,0.0000,,25.7425,,25.7414,,0.6612,84.7640,,7.867,,1.1953E+02,,1.0000E-12,,11.2179,11.2294,0.1511,,46.400,63.150,,,,,,,,,,,,
CalCOFI,2007SR,008,9,2007_008d,14-Jul-2020 14:34:24,14-Jul-2020 06:34:24,32.34632,-118.55824,093.3 045.0,093.3,045.0,47.000,47.337,,11.1867,,11.2016,,11.1942,33.7287,,33.7289,33.7281,,33.7297,33.7293,2.9261,,3.0398,3.0817,3.8680,,5.2929,4.8579,3.9698,127.400,132.5048,117.2050,168.408,146.0574,167.7397,142.4724,0.0389,,0.0329,0.4289,0.1570,,0.0000,,25.7531,,25.7499,,0.6580,84.8319,,7.863,,1.1813E+02,,1.0000E-12,,11.1810,11.1958,0.1533,,47.150,62.347,,,,,,,,,,,,
CalCOFI,2007SR,008,9,2007_008d,14-Jul-2020 14:34:26,14-Jul-2020 06:34:26,32.34632,-118.55824,093.3 045.0,093.3,045.0,48.000,48.344,,11.0826,,11.0829,,11.0828,33.7275,,33.7277,33.7297,,33.7313,33.7295,2.9894,,3.1059,3.1478,3.8330,,5.2093,4.7719,3.9599,130.151,135.3765,119.4539,166.880,152.7859,164.9360,142.1950,0.0381,,0.0235,0.4107,0.1681,,0.0000,,25.7709,,25.7725,,0.6552,84.8917,,7.862,,1.2002E+02,,1.0000E-12,,11.0767,11.0770,0.1556,,48.062,61.627,,,,,,,,,,,,
CalCOFI,2007SR,008,9,2007_008d,14-Jul-2020 14:34:28,14-Jul-2020 06:34:28,32.34632,-118.55824,093.3 045.0,093.3,045.0,49.000,49.351,,10.9807,,10.9816,,10.9812,33.7359,,33.7361,33.7383,,33.7399,33.7380,2.9977,,3.1146,3.1564,3.8118,,5.1587,4.7197,3.9381,130.511,135.7523,119.7482,165.955,153.6664,163.2387,141.4935,0.0379,,0.0211,0.4061,0.1645,,0.0000,,25.7957,,25.7974,,0.6531,84.9354,,7.864,,1.1997E+02,,1.0000E-12,,10.9748,10.9757,0.1578,,48.094,61.158,,,,,,,,,,,,
CalCOFI,2007SR,008,9,2007_008d,14-Jul-2020 14:34:30,14-Jul-2020 06:34:30,32.34632,-118.55824,093.3 045.0,093.3,045.0,50.000,50.358,,10.9699,,10.9794,,10.9747,33.7395,,33.7397,33.7407,,33.7423,33.7410,2.9930,,3.1097,3.1515,3.7809,,5.0849,4.6437,3.8976,130.303,135.5352,119.5782,164.607,153.1577,160.7653,140.1718,0.0369,,0.0094,0.3832,0.1465,,0.0000,,25.8004,,25.7997,,0.6517,84.9659,,7.864,,1.1866E+02,,1.0000E-12,,10.9638,10.9733,0.1600,,48.008,60.659,50,10.891,33.7353,3.094,134.70,0.215,0.186,16.94,0.00,0.11,1.44,16.91